Date,TemperatureHighF,TemperatureAvgF,TemperatureLowF,DewpointHighF,DewpointAvgF,DewpointLowF,HumidityHigh,HumidityAvg,HumidityLow,PressureMaxIn,PressureMinIn,WindSpeedMaxMPH,WindSpeedAvgMPH,GustSpeedMaxMPH,PrecipitationSumIn
2013-1-1,65.7,56.2,46.6,7.7,0.4,-7.2,10,10,10,30.07,29.86,4,1,7,0.00
2013-1-2,64.8,56.6,53.1,6.8,0.6,-2.2,10,10,10,30.04,29.81,3,1,4,0.05
2013-1-3,54.3,49.3,46.4,-1.2,-5.0,-7.4,10,10,10,30.17,29.99,6,2,6,0.01
2013-1-4,57.6,45.7,34.7,1.3,-7.8,-16.5,10,10,10,30.26,30.15,6,2,7,0.00
2013-1-5,56.1,45.9,28.8,0.3,-7.7,-21.1,10,10,10,30.31,30.19,3,1,6,0.00
2013-1-6,56.7,49.3,44.4,0.7,-5.0,-8.9,10,10,10,30.17,30.01,10,3,11,0.02
2013-1-7,59.0,45.5,33.8,2.5,-7.9,-17.2,10,10,10,30.30,30.13,7,2,14,0.00
2013-1-8,57.0,47.8,34.3,1.0,-6.2,-16.7,10,10,10,30.31,30.22,4,1,6,0.00
2013-1-9,70.9,57.6,43.5,11.5,1.3,-9.6,10,10,10,30.34,30.24,4,1,4,0.00
2013-1-10,76.8,63.4,49.1,16.1,5.8,-5.3,10,10,10,30.34,30.24,9,2,10,0.01
2013-1-11,75.7,67.9,61.7,15.2,9.3,4.5,10,10,10,30.20,30.05,9,2,9,0.01
2013-1-12,81.7,70.4,57.6,19.9,11.3,1.3,10,10,10,30.10,30.00,8,2,11,0.00
2013-1-13,79.5,70.7,62.4,18.2,11.5,5.0,10,10,10,30.07,29.97,8,4,14,0.00
2013-1-14,79.9,70.7,61.7,18.4,11.5,4.5,10,10,10,30.06,29.97,11,3,11,0.00
2013-1-15,77.4,69.5,60.1,16.5,10.5,3.2,10,10,10,30.03,29.91,10,3,10,0.00
2013-1-16,77.0,69.0,64.6,16.2,10.1,6.7,10,10,10,29.92,29.84,8,3,8,0.05
2013-1-17,70.7,56.8,44.4,11.4,0.7,-8.7,10,10,10,29.99,29.65,15,6,21,0.40
2013-1-18,57.9,44.7,34.0,1.6,-8.6,-17.0,10,10,10,30.40,30.10,7,1,7,0.00
2013-1-19,63.1,47.4,29.7,5.7,-6.4,-20.4,10,10,10,30.39,30.14,4,2,9,0.00
2013-1-20,68.0,56.3,41.4,9.4,0.4,-11.3,10,10,10,30.12,29.97,11,4,17,0.00
2013-1-21,65.1,55.5,38.3,7.2,-0.2,-13.7,10,10,10,30.00,29.91,13,6,17,0.00
2013-1-22,52.5,44.8,36.7,-2.6,-8.6,-14.9,10,10,10,30.18,29.99,12,7,18,0.00
2013-1-23,56.7,45.8,32.0,0.7,-7.7,-18.6,10,10,10,30.27,30.09,13,4,18,0.00
2013-1-24,65.5,54.2,42.6,7.4,-1.2,-10.2,10,10,10,30.30,29.75,15,6,15,0.00
2013-1-25,40.8,36.0,29.7,-11.5,-15.4,-20.4,10,10,10,30.36,30.05,7,2,7,0.00
2013-1-26,61.7,48.9,37.9,4.6,-5.3,-13.9,10,10,10,30.19,30.01,12,2,113,0.00
2013-1-27,57.4,47.8,34.5,1.3,-6.2,-16.6,10,10,10,30.42,30.20,6,3,11,0.00
2013-1-28,61.9,50.7,43.0,4.8,-4.0,-10.0,10,10,10,30.35,30.20,3,1,3,0.00
2013-1-29,78.3,64.7,43.7,17.3,6.8,-9.5,10,10,10,30.19,29.97,8,3,12,0.00
2013-1-30,78.1,69.8,54.5,17.0,10.8,-0.9,10,10,10,29.95,29.44,19,9,28,0.87
2013-1-31,54.5,47.7,39.6,-1.1,-6.3,-12.7,10,10,10,30.06,29.64,21,9,21,0.06
2013-2-1,51.8,45.2,33.6,-3.1,-8.2,-17.3,10,10,10,30.26,30.01,14,6,18,0.00
2013-2-2,58.8,41.9,25.5,2.3,-10.9,-23.5,10,10,10,30.27,30.00,8,3,8,0.00
2013-2-3,62.2,51.5,40.3,5.0,-3.3,-12.1,10,10,10,30.01,29.83,19,8,27,0.04
2013-2-4,52.0,45.0,36.5,-3.0,-8.4,-15.1,10,10,10,30.05,29.94,6,2,6,0.00
2013-2-5,67.5,53.2,36.0,8.9,-2.1,-15.5,10,10,10,29.95,29.87,13,3,13,0.00
2013-2-6,73.8,58.0,42.8,13.7,1.7,-10.2,10,10,10,30.07,29.93,8,1,8,0.00
2013-2-7,51.4,48.3,45.7,-3.4,-5.8,-7.9,10,10,10,30.07,29.77,7,2,15,1.93
2013-2-8,45.9,45.3,44.8,-7.8,-8.1,-8.5,10,10,10,29.87,29.78,6,2,8,0.01
2013-2-9,66.0,50.3,33.3,7.9,-4.3,-17.6,10,10,10,30.21,30.01,4,1,6,0.00
2013-2-10,68.9,56.9,39.7,10.1,0.9,-12.5,10,10,10,30.29,30.02,9,4,17,0.02
2013-2-11,68.5,61.6,57.2,9.9,4.5,1.0,10,10,10,30.10,29.95,11,4,12,0.83
2013-2-12,65.5,57.0,51.6,7.4,0.9,-3.3,10,10,10,30.03,29.81,6,2,6,0.52
2013-2-13,59.0,52.4,49.1,2.4,-2.7,-5.3,10,10,10,29.79,29.64,14,5,16,0.06
2013-2-14,53.6,45.3,37.8,-1.8,-8.2,-14.1,10,10,10,29.99,29.81,6,2,6,0.00
2013-2-15,66.4,49.8,33.1,8.1,-4.7,-17.7,10,10,10,30.02,29.87,6,1,7,0.00
2013-2-16,53.1,42.9,34.2,-2.2,-9.9,-16.6,10,10,10,29.99,29.74,26,10,26,0.01
2013-2-17,49.8,38.0,29.1,-4.5,-13.7,-20.6,10,10,10,30.21,29.83,20,6,20,0.00
2013-2-18,59.9,44.9,27.1,3.2,-8.4,-22.1,10,10,10,30.30,29.86,11,2,11,0.00
2013-2-19,57.9,46.5,38.5,1.7,-7.1,-13.3,10,10,10,29.86,29.62,13,3,13,0.24
2013-2-20,62.4,47.5,32.2,5.2,-6.3,-18.2,10,10,10,29.80,29.68,13,3,13,0.00
2013-2-21,67.6,49.5,34.2,9.2,-4.8,-16.6,10,10,10,29.83,29.67,7,2,7,0.00
2013-2-22,54.5,45.4,41.2,-0.9,-8.0,-11.2,10,10,10,29.81,29.72,4,1,14,0.74
2013-2-23,47.1,44.1,40.5,-6.6,-8.9,-11.8,10,10,10,29.73,29.48,4,1,11,0.54
2013-2-24,72.5,55.1,45.3,12.9,-0.5,-8.0,10,10,10,29.65,29.52,7,2,11,0.00
2013-2-25,50.7,46.8,41.7,-3.8,-6.9,-10.8,10,10,10,29.72,29.56,4,1,14,0.01
2013-2-26,54.0,46.2,39.9,-1.3,-7.3,-12.2,10,10,10,29.59,29.22,6,2,12,0.97
2013-2-27,64.4,51.6,41.5,6.7,-3.1,-10.9,10,10,10,29.53,29.40,7,3,16,0.01
2013-2-28,57.7,48.8,40.6,1.6,-5.3,-11.6,10,10,10,29.58,29.44,13,4,21,0.00
2013-3-1,56.1,44.0,33.4,0.3,-9.0,-17.2,10,10,10,29.62,29.50,8,2,19,0.00
2013-3-2,47.1,40.5,36.1,-6.6,-11.7,-15.1,10,10,10,29.60,29.51,9,3,15,0.00
2013-3-3,51.3,40.2,33.4,-3.4,-12.0,-17.2,10,10,10,29.95,29.56,8,4,16,0.00
2013-3-4,62.8,44.6,27.5,5.4,-8.6,-21.8,10,10,10,30.11,29.94,5,2,11,0.00
2013-3-5,69.4,54.7,39.7,10.5,-0.8,-12.3,10,10,10,30.00,29.59,12,3,26,0.30
2013-3-6,52.0,43.6,37.0,-2.9,-9.3,-14.4,10,10,10,30.04,29.71,22,7,35,0.01
2013-3-7,63.0,45.2,30.2,5.6,-8.1,-19.7,10,10,10,30.16,30.03,4,1,14,0.00
2013-3-8,64.9,48.6,34.3,7.1,-5.5,-16.5,10,10,10,30.21,30.08,4,1,11,0.00
2013-3-9,69.1,51.3,34.5,10.3,-3.4,-16.4,10,10,10,30.25,30.12,4,1,13,0.00
2013-3-10,73.4,58.4,43.2,13.6,2.0,-9.7,10,10,10,30.19,30.03,7,1,14,0.00
2013-3-11,72.5,61.7,50.0,12.9,4.6,-4.4,10,10,10,30.08,29.73,8,2,16,0.00
2013-3-12,70.7,61.3,52.9,11.5,4.3,-2.2,10,10,10,29.92,29.69,11,3,16,0.26
2013-3-13,64.0,53.2,42.1,6.4,-1.9,-10.5,10,10,10,30.08,29.93,13,4,25,0.00
2013-3-14,59.0,46.0,32.5,2.5,-7.5,-17.9,10,10,10,30.24,30.08,8,2,14,0.00
2013-3-15,75.2,56.5,36.5,14.9,0.6,-14.8,10,10,10,30.14,29.90,8,3,19,0.00
2013-3-16,80.6,67.8,55.8,19.1,9.2,0.1,10,10,10,29.93,29.76,9,4,27,0.00
2013-3-17,75.9,67.3,58.6,15.5,8.9,2.3,10,10,10,29.93,29.83,10,3,16,0.00
2013-3-18,71.4,60.7,49.1,12.1,3.8,-5.1,10,10,10,29.96,29.72,8,1,29,0.71
2013-3-19,74.7,59.5,49.3,14.5,2.9,-4.9,10,10,10,29.95,29.77,8,2,16,0.02
2013-3-20,63.3,53.7,43.9,5.9,-1.5,-9.1,10,10,10,30.03,29.77,8,1,14,0.00
2013-3-21,56.7,47.6,39.2,0.7,-6.2,-12.7,10,10,10,29.87,29.75,12,4,21,0.00
2013-3-22,52.9,44.4,36.1,-2.2,-8.7,-15.1,10,10,10,29.99,29.87,4,1,8,0.00
2013-3-23,56.3,49.6,45.1,0.5,-4.7,-8.1,10,10,10,29.96,29.79,4,1,10,0.33
2013-3-24,51.1,49.2,46.8,-3.6,-5.0,-6.9,10,10,10,29.79,29.47,4,1,14,1.41
2013-3-25,52.0,45.8,39.7,-2.9,-7.6,-12.3,10,10,10,29.91,29.54,14,6,33,0.11
2013-3-26,50.9,41.9,33.6,-3.7,-10.7,-17.1,10,10,10,30.13,29.90,11,5,19,0.00
2013-3-27,60.3,45.1,31.5,3.5,-8.2,-18.7,10,10,10,30.21,30.09,7,2,15,0.00
2013-3-28,64.9,49.2,32.0,7.1,-5.0,-18.3,10,10,10,30.24,30.10,10,1,16,0.00
2013-3-29,70.2,54.0,35.2,11.1,-1.3,-15.8,10,10,10,30.25,30.09,4,1,10,0.00
2013-3-30,77.2,63.6,50.9,16.5,6.0,-3.7,10,10,10,30.13,29.94,5,1,11,0.00
2013-3-31,78.8,67.7,60.6,17.7,9.2,3.8,10,10,10,29.95,29.76,9,3,17,0.05
2013-4-1,78.8,66.8,57.4,17.7,8.5,1.3,10,10,10,29.88,29.77,8,2,15,0.34
2013-4-2,75.7,62.3,47.7,15.4,5.1,-6.2,10,10,10,30.05,29.58,10,2,16,0.00
2013-4-3,66.7,58.4,47.5,8.5,2.0,-6.3,10,10,10,29.75,29.61,4,1,9,0.01
2013-4-4,53.6,46.3,42.3,-1.6,-7.3,-10.4,10,10,10,29.72,29.48,3,1,15,0.81
2013-4-5,62.6,49.6,39.7,5.3,-4.7,-12.3,10,10,10,29.57,29.45,4,1,12,0.01
2013-4-6,77.2,58.7,39.6,16.5,2.3,-12.5,10,10,10,30.10,29.57,5,1,15,0.00
2013-4-7,79.0,64.0,45.3,17.8,6.4,-8.0,10,10,10,30.15,29.99,4,1,14,0.00
2013-4-8,83.3,69.0,53.1,21.1,10.2,-2.0,10,10,10,30.09,29.97,4,1,11,0.00
2013-4-9,88.0,72.5,57.2,24.7,12.8,1.2,10,10,10,30.12,30.01,3,1,9,0.00
2013-4-10,88.2,74.2,60.1,24.8,14.2,3.4,10,10,10,30.06,29.88,5,1,11,0.00
2013-4-11,84.2,73.0,64.0,21.8,13.3,6.4,10,10,10,29.90,29.66,5,1,13,0.00
2013-4-12,82.4,72.9,62.6,20.4,13.2,5.3,10,10,10,29.79,29.61,9,3,19,0.12
2013-4-13,82.0,66.6,50.5,20.2,8.3,-4.0,10,10,10,29.92,29.79,5,1,12,0.00
2013-4-14,70.5,60.8,51.6,11.4,3.9,-3.1,10,10,10,30.00,29.73,4,0,24,0.26
2013-4-15,78.4,67.3,61.0,17.4,8.9,4.1,10,10,10,30.06,29.85,3,0,8,0.01
2013-4-16,86.2,71.8,59.2,23.3,12.3,2.7,10,10,10,30.17,30.06,3,0,8,0.00
2013-4-17,87.4,73.9,59.4,24.3,13.9,2.8,10,10,10,30.14,30.01,5,1,11,0.00
2013-4-18,84.6,73.8,61.2,22.1,13.9,4.2,10,10,10,30.04,29.88,4,1,13,0.00
2013-4-19,84.7,70.1,53.1,22.2,11.1,-2.0,10,10,10,29.89,29.73,10,2,21,0.54
2013-4-20,70.0,56.5,45.1,11.0,0.6,-8.1,10,10,10,30.14,29.88,5,2,14,0.00
2013-4-21,73.0,58.5,42.6,13.3,2.1,-10.1,10,10,10,30.25,30.14,4,1,16,0.00
2013-4-22,72.5,60.6,52.3,12.9,3.8,-2.6,10,10,10,30.23,30.07,4,1,14,0.00
2013-4-23,79.0,61.3,44.1,17.8,4.3,-9.0,10,10,10,30.14,29.99,4,1,8,0.00
2013-4-24,82.8,68.5,56.3,20.7,9.8,0.5,10,10,10,30.08,29.94,4,1,14,0.00
2013-4-25,81.5,71.2,57.6,19.7,11.9,1.4,10,10,10,30.14,29.97,10,1,14,0.00
2013-4-26,81.0,65.0,48.7,19.3,7.1,-5.4,10,10,10,30.29,30.15,5,1,15,0.00
2013-4-27,73.2,63.6,54.7,13.4,6.0,-0.8,10,10,10,30.26,30.11,4,1,9,0.05
2013-4-28,75.7,64.3,57.6,15.4,6.6,1.4,10,10,10,30.11,29.90,4,1,13,1.55
2013-4-29,74.5,65.7,61.5,14.4,7.7,4.5,10,10,10,29.97,29.85,4,0,9,0.20
2013-4-30,80.2,67.9,56.8,18.8,9.4,0.9,10,10,10,30.02,29.87,3,0,9,0.01
2013-5-1,71.4,65.7,59.7,12.1,7.7,3.1,10,10,10,30.11,30.01,3,1,10,0.00
2013-5-2,72.5,66.4,62.6,12.9,8.2,5.3,10,10,10,30.10,30.02,4,1,12,0.00
2013-5-3,69.1,63.6,59.2,10.3,6.1,2.7,10,10,10,30.03,29.92,6,2,17,0.00
2013-5-4,63.3,59.3,53.6,5.9,2.7,-1.6,10,10,10,29.92,29.76,6,2,15,0.43
2013-5-5,75.9,63.1,57.2,15.5,5.7,1.2,10,10,10,29.77,29.67,4,1,17,0.74
2013-5-6,70.9,60.4,51.6,11.6,3.6,-3.1,10,10,10,29.85,29.72,7,1,16,0.00
2013-5-7,75.0,62.1,52.3,14.8,4.9,-2.6,10,10,10,29.89,29.78,6,1,12,0.00
2013-5-8,81.5,68.8,55.4,19.7,10.0,-0.2,10,10,10,29.94,29.85,6,1,12,0.00
2013-5-9,87.4,74.2,60.6,24.3,14.1,3.8,10,10,10,30.01,29.92,5,1,11,0.00
2013-5-10,87.4,75.2,61.0,24.3,14.9,4.1,10,10,10,29.99,29.86,4,1,18,0.00
2013-5-11,84.0,74.3,63.5,21.7,14.3,6.0,10,10,10,29.91,29.77,4,1,14,0.00
2013-5-12,80.6,71.7,61.9,19.1,12.3,4.8,10,10,10,29.96,29.77,8,3,18,0.00
2013-5-13,75.7,63.5,49.3,15.4,6.0,-4.9,10,10,10,30.10,29.95,6,2,14,0.00
2013-5-14,80.4,65.3,46.6,18.9,7.4,-7.0,10,10,10,30.18,30.04,4,1,11,0.00
2013-5-15,92.1,77.7,64.4,27.8,16.9,6.7,10,10,10,30.06,29.90,6,1,15,0.00
2013-5-16,86.7,76.7,67.8,23.7,16.1,9.3,10,10,10,29.99,29.90,4,1,10,0.00
2013-5-17,89.2,75.5,62.2,25.6,15.2,5.0,10,10,10,30.02,29.93,4,0,13,0.00
2013-5-18,83.1,74.2,67.3,21.0,14.2,8.9,10,10,10,30.04,29.95,2,0,8,0.00
2013-5-19,80.2,73.5,69.1,18.7,13.6,10.1,10,10,10,30.02,29.94,2,0,6,0.01
2013-5-20,85.8,75.9,69.4,23.0,15.5,10.5,10,10,10,30.02,29.92,2,0,8,0.00
2013-5-21,92.5,75.8,68.4,28.1,15.4,9.7,10,10,10,29.97,29.86,3,0,14,0.00
2013-5-22,88.5,76.2,65.1,25.1,15.7,7.2,10,10,10,29.92,29.79,4,1,9,0.00
2013-5-23,88.0,76.9,68.0,24.7,16.2,9.4,10,10,10,29.88,29.77,5,1,17,0.07
2013-5-24,85.6,74.7,64.4,22.9,14.5,6.7,10,10,10,30.09,29.83,9,2,21,0.00
2013-5-25,82.9,68.1,50.7,20.8,9.5,-3.8,10,10,10,30.23,30.07,4,1,10,0.00
2013-5-26,86.4,72.0,56.8,23.3,12.4,0.7,10,10,10,30.17,30.06,5,1,11,0.00
2013-5-27,91.2,76.4,61.7,27.1,15.8,4.6,10,10,10,30.14,30.02,3,1,13,0.00
2013-5-28,90.3,77.8,64.0,26.4,16.9,6.4,10,10,10,30.13,30.04,5,1,12,0.00
2013-5-29,90.3,77.5,62.4,26.4,16.7,5.2,10,10,10,30.15,30.04,4,1,10,0.00
2013-5-30,92.8,78.8,64.6,28.4,17.7,6.8,10,10,10,30.16,30.02,3,1,11,0.00
2013-5-31,92.5,80.0,69.1,28.1,18.6,10.3,10,10,10,30.13,29.99,4,1,10,0.00
2013-6-1,93.7,80.0,67.3,29.0,18.6,8.9,10,10,10,30.05,29.92,4,1,13,0.00
2013-6-2,91.2,80.4,71.1,27.1,18.9,11.8,10,10,10,29.99,29.79,4,1,10,0.67
2013-6-3,90.5,77.2,71.4,26.6,16.5,12.1,10,10,10,29.85,29.77,5,1,17,1.03
2013-6-4,90.7,78.7,70.9,26.7,17.6,11.6,10,10,10,29.93,29.83,4,0,11,0.01
2013-6-5,85.6,74.4,71.6,22.9,14.3,12.2,10,10,10,29.95,29.84,3,0,12,0.43
2013-6-6,78.3,73.4,70.7,17.3,13.6,11.5,10,10,10,29.86,29.63,3,0,12,0.59
2013-6-7,89.6,76.2,69.4,25.9,15.7,10.5,10,10,10,29.78,29.50,7,2,12,1.28
2013-6-8,88.2,77.2,69.1,24.8,16.4,10.3,10,10,10,29.99,29.75,4,1,9,0.01
2013-6-9,87.6,75.3,70.9,24.4,15.0,11.6,10,10,10,30.03,29.95,3,0,11,1.10
2013-6-10,83.8,75.3,71.2,21.5,15.0,11.9,10,10,10,29.99,29.87,5,1,14,1.17
2013-6-11,93.0,81.3,70.9,28.5,19.6,11.6,10,10,10,29.95,29.84,6,1,15,0.01
2013-6-12,98.2,86.3,74.3,32.4,23.4,14.3,10,10,10,29.93,29.85,4,1,10,0.00
2013-6-13,96.3,87.6,79.0,30.9,24.4,17.8,10,10,10,29.86,29.64,8,2,18,0.00
2013-6-14,89.8,80.5,72.3,26.0,18.9,12.7,10,10,10,29.92,29.68,5,1,11,0.00
2013-6-15,91.2,78.1,64.2,27.1,17.1,6.5,10,10,10,30.03,29.92,3,0,11,0.00
2013-6-16,91.2,79.9,66.9,27.1,18.5,8.6,10,10,10,30.08,29.93,4,1,11,0.00
2013-6-17,91.6,78.1,71.4,27.4,17.2,12.1,10,10,10,29.99,29.85,4,1,10,0.34
2013-6-18,88.3,77.4,70.7,24.9,16.6,11.5,10,10,10,29.91,29.75,7,1,14,0.14
2013-6-19,82.8,77.3,72.1,20.7,16.6,12.6,10,10,10,29.98,29.80,3,0,8,0.04
2013-6-20,89.2,77.8,67.1,25.6,16.9,8.8,10,10,10,30.08,29.97,4,1,11,0.00
2013-6-21,88.5,77.4,65.5,25.1,16.6,7.5,10,10,10,30.14,30.05,3,0,11,0.00
2013-6-22,90.9,77.8,66.9,26.9,16.9,8.6,10,10,10,30.10,29.99,4,0,16,2.42
2013-6-23,87.8,76.8,69.1,24.5,16.1,10.3,10,10,10,30.11,30.02,2,0,6,0.40
2013-6-24,91.9,79.1,72.7,27.7,17.9,13.0,10,10,10,30.13,30.02,2,0,8,0.08
2013-6-25,91.6,78.4,70.5,27.4,17.4,11.4,10,10,10,30.08,29.95,3,0,10,0.09
2013-6-26,91.2,78.4,72.1,27.1,17.4,12.6,10,10,10,29.99,29.85,4,0,10,0.27
2013-6-27,92.8,83.5,76.1,28.4,21.3,15.6,10,10,10,29.89,29.69,7,2,14,0.00
2013-6-28,96.4,83.9,73.8,31.1,21.5,13.8,10,10,10,29.73,29.55,7,2,14,0.00
2013-6-29,88.9,79.9,73.9,25.4,18.6,14.0,10,10,10,29.65,29.58,3,1,11,0.01
2013-6-30,90.5,77.6,70.3,26.6,16.8,11.2,10,10,10,29.74,29.62,3,0,12,0.22
2013-7-1,85.8,76.5,70.3,23.0,15.9,11.2,10,10,10,29.86,29.71,4,1,9,0.28
2013-7-2,82.0,76.9,73.6,20.2,16.2,13.7,10,10,10,30.00,29.87,3,1,14,0.34
2013-7-3,86.2,76.9,72.9,23.2,16.1,13.0,10,10,10,30.09,30.00,4,0,9,0.19
2013-7-4,87.6,77.6,70.7,24.4,16.8,11.5,10,10,10,30.10,30.02,4,1,13,0.72
2013-7-5,89.6,78.1,72.1,25.9,17.2,12.6,10,10,10,30.13,30.06,3,0,11,0.35
2013-7-6,86.9,78.0,73.8,23.9,17.0,13.8,10,10,10,30.11,30.01,4,0,9,0.46
2013-7-7,89.8,79.4,73.9,26.0,18.2,14.0,10,10,10,30.09,29.99,4,0,10,0.04
2013-7-8,92.1,79.4,72.7,27.8,18.2,13.0,10,10,10,30.10,30.02,4,1,14,0.11
2013-7-9,92.1,80.9,73.4,27.8,19.3,13.6,10,10,10,30.09,29.98,3,0,10,0.24
2013-7-10,86.7,78.2,73.4,23.7,17.2,13.6,10,10,10,30.03,29.89,3,0,11,1.64
2013-7-11,90.5,79.1,73.9,26.6,17.9,14.0,10,10,10,29.90,29.79,4,0,8,1.30
2013-7-12,87.1,78.2,72.5,24.0,17.2,12.9,10,10,10,29.87,29.78,2,0,7,0.27
2013-7-13,81.0,75.8,71.4,19.3,15.4,12.1,10,10,10,29.96,29.86,2,0,8,0.89
2013-7-14,85.5,76.1,72.3,22.8,15.6,12.7,10,10,10,30.14,29.97,4,1,17,0.43
2013-7-15,91.2,77.8,72.3,27.1,16.9,12.7,10,10,10,30.17,30.11,4,0,14,0.40
2013-7-16,92.8,81.4,71.6,28.4,19.6,12.2,10,10,10,30.21,30.12,3,0,7,0.00
2013-7-17,95.9,80.8,72.0,30.7,19.2,12.5,10,10,10,30.16,30.01,2,0,11,0.02
2013-7-18,91.4,80.6,70.3,27.3,19.1,11.2,10,10,10,30.13,29.96,5,0,10,0.01
2013-7-19,95.0,83.0,73.4,30.0,20.9,13.6,10,10,10,30.03,29.90,2,0,13,0.00
2013-7-20,90.3,80.4,75.2,26.4,18.9,14.9,10,10,10,29.99,29.86,2,0,9,0.00
2013-7-21,90.9,81.2,75.7,26.9,19.5,15.4,10,10,10,29.95,29.84,4,1,11,0.00
2013-7-22,91.9,80.5,72.1,27.7,19.0,12.6,10,10,10,29.94,29.80,7,2,13,0.00
2013-7-23,93.6,82.7,75.2,28.9,20.7,14.9,10,10,10,29.84,29.72,7,2,16,0.00
2013-7-24,95.2,81.3,74.1,30.1,19.6,14.1,10,10,10,29.75,29.67,3,1,10,0.00
2013-7-25,91.9,81.5,71.8,27.7,19.7,12.3,10,10,10,29.90,29.71,3,0,8,0.00
2013-7-26,92.1,81.2,73.0,27.8,19.5,13.3,10,10,10,29.99,29.90,2,0,11,0.00
2013-7-27,91.0,80.5,73.8,27.0,19.0,13.8,10,10,10,29.95,29.80,4,1,12,0.00
2013-7-28,93.7,82.5,73.2,29.0,20.5,13.4,10,10,10,29.93,29.83,4,0,9,0.00
2013-7-29,91.9,82.6,73.8,27.7,20.5,13.8,10,10,10,30.05,29.91,2,0,11,0.00
2013-7-30,95.0,83.0,72.1,30.0,20.8,12.6,10,10,10,30.09,30.01,3,0,8,0.00
2013-7-31,83.1,77.8,74.3,21.0,16.9,14.3,10,10,10,30.04,29.91,6,0,11,0.35
2013-8-1,91.6,79.9,73.2,27.4,18.5,13.4,10,10,10,29.92,29.80,4,1,11,0.09
2013-8-2,92.3,81.3,74.8,27.9,19.6,14.7,10,10,10,29.94,29.83,2,0,7,0.00
2013-8-3,93.9,83.3,73.8,29.2,21.1,13.8,10,10,10,29.94,29.87,5,1,11,0.00
2013-8-4,94.3,84.4,75.4,29.4,22.0,15.1,10,10,10,29.93,29.82,4,1,11,0.40
2013-8-5,91.2,80.4,72.9,27.1,18.9,13.2,10,10,10,29.96,29.87,3,1,11,0.01
2013-8-6,90.3,79.9,73.6,26.4,18.5,13.7,10,10,10,29.95,29.87,3,0,14,0.04
2013-8-7,91.0,80.9,73.2,27.0,19.3,13.4,10,10,10,29.98,29.89,2,0,8,0.00
2013-8-8,94.8,83.5,72.1,29.9,21.2,12.6,10,10,10,29.98,29.90,2,0,6,0.00
2013-8-9,91.4,81.8,77.2,27.3,20.0,16.5,10,10,10,30.02,29.92,2,0,10,0.20
2013-8-10,96.1,85.0,75.4,30.8,22.4,15.1,10,10,10,30.04,29.95,4,0,8,0.01
2013-8-11,96.3,85.2,74.5,30.9,22.5,14.4,10,10,10,30.06,29.96,5,1,10,0.21
2013-8-12,97.7,84.0,77.4,32.0,21.7,16.6,10,10,10,30.00,29.88,6,1,11,0.08
2013-8-13,95.2,84.2,74.1,30.1,21.8,14.1,10,10,10,29.90,29.76,4,1,15,0.07
2013-8-14,83.5,78.5,72.1,21.3,17.4,12.6,10,10,10,29.94,29.77,4,1,8,0.04
2013-8-15,72.1,68.1,63.7,12.6,9.5,6.1,10,10,10,30.01,29.91,3,0,12,0.92
2013-8-16,68.4,66.9,65.8,9.7,8.6,7.8,10,10,10,30.03,29.94,3,0,12,1.77
2013-8-17,70.5,68.0,65.8,11.4,9.5,7.8,10,10,10,30.06,29.98,2,0,7,0.32
2013-8-18,88.0,75.0,69.4,24.7,14.8,10.5,10,10,10,30.11,29.99,2,0,8,1.36
2013-8-19,83.3,75.5,70.7,21.1,15.2,11.5,10,10,10,30.08,29.97,3,0,7,0.11
2013-8-20,84.7,77.2,73.4,22.2,16.4,13.6,10,10,10,30.08,29.99,2,0,5,0.50
2013-8-21,93.2,78.2,73.4,28.6,17.2,13.6,10,10,10,30.14,30.03,3,0,9,0.00
2013-8-22,94.6,82.1,71.2,29.7,20.2,11.9,10,10,10,30.07,29.93,4,1,11,0.01
2013-8-23,93.9,80.9,71.4,29.2,19.3,12.1,10,10,10,29.97,29.87,4,1,8,0.00
2013-8-24,80.8,75.3,71.2,19.2,15.1,11.9,10,10,10,30.14,29.94,3,0,11,0.00
2013-8-25,86.4,75.3,63.7,23.4,15.0,6.1,10,10,10,30.25,30.14,4,1,10,0.00
2013-8-26,86.0,72.4,59.2,23.2,12.8,2.7,10,10,10,30.21,30.05,2,0,11,0.00
2013-8-27,90.1,75.6,61.3,26.3,15.2,4.3,10,10,10,30.08,29.92,4,0,8,0.00
2013-8-28,94.1,80.8,68.0,29.2,19.1,9.3,10,10,10,29.95,29.86,4,0,7,0.00
2013-8-29,95.7,84.1,73.9,30.5,21.7,14.0,10,10,10,29.89,29.80,4,1,10,0.00
2013-8-30,90.9,81.8,76.3,26.9,20.0,15.8,10,10,10,29.94,29.84,2,0,7,0.00
2013-8-31,92.7,82.1,73.8,28.2,20.2,13.8,10,10,10,29.89,29.79,2,0,7,0.00
2013-9-1,96.1,84.2,75.6,30.8,21.8,15.2,10,10,10,29.85,29.73,4,1,11,0.00
2013-9-2,93.6,82.0,72.5,28.9,20.1,12.9,10,10,10,29.85,29.74,4,1,10,0.00
2013-9-3,93.7,82.7,74.1,29.0,20.7,14.1,10,10,10,29.89,29.76,5,1,13,0.00
2013-9-4,94.6,82.2,71.4,29.7,20.3,12.1,10,10,10,29.99,29.86,3,0,8,0.00
2013-9-5,94.1,82.3,72.1,29.3,20.3,12.6,10,10,10,30.02,29.94,2,0,6,0.00
2013-9-6,91.4,79.4,70.3,27.3,18.1,11.2,10,10,10,30.04,29.95,3,0,8,0.00
2013-9-7,91.4,77.6,65.5,27.3,16.7,7.5,10,10,10,30.02,29.90,3,0,8,0.00
2013-9-8,93.6,79.4,66.7,28.9,18.1,8.5,10,10,10,29.92,29.83,2,0,8,0.00
2013-9-9,95.0,81.7,69.6,30.0,19.9,10.7,10,10,10,30.03,29.89,4,0,8,0.00
2013-9-10,94.1,81.6,70.2,29.3,19.8,11.1,10,10,10,30.14,30.03,3,0,11,0.00
2013-9-11,93.9,79.4,67.3,29.2,18.2,8.9,10,10,10,30.13,29.99,3,0,8,0.00
2013-9-12,91.6,76.1,68.4,27.3,15.5,9.6,10,10,10,30.01,29.85,5,0,8,0.08
2013-9-13,91.6,82.6,73.8,27.4,20.6,13.8,10,10,10,29.91,29.79,4,1,13,0.00
2013-9-14,85.5,82.6,66.9,22.8,20.6,8.6,10,10,10,29.95,29.80,3,0,10,0.00
2013-9-15,91.9,83.7,70.2,27.7,21.4,11.0,10,10,10,30.12,30.02,4,0,8,0.00
2013-9-16,91.6,81.0,74.8,27.4,19.3,14.7,10,10,10,30.09,29.99,2,0,9,0.35
2013-9-17,82.4,74.4,68.2,20.4,14.4,9.6,10,10,10,30.20,30.04,4,1,10,0.54
2013-9-18,82.4,71.2,62.8,20.4,11.9,5.4,10,10,10,30.21,30.09,3,0,8,0.00
2013-9-19,87.3,72.7,60.1,24.1,13.0,3.4,10,10,10,30.14,30.03,2,0,7,0.00
2013-9-20,90.7,76.8,64.6,26.7,16.1,6.8,10,10,10,30.05,29.89,4,0,7,0.00
2013-9-21,84.0,75.8,68.9,21.7,15.4,10.1,10,10,10,29.91,29.66,3,0,9,0.33
2013-9-22,85.6,73.3,63.5,22.9,13.5,6.0,10,10,10,29.84,29.69,4,1,11,0.01
2013-9-23,84.9,71.0,59.0,22.3,11.7,2.5,10,10,10,29.99,29.84,2,0,9,0.00
2013-9-24,80.6,71.9,63.7,19.1,12.4,6.1,10,10,10,30.00,29.86,2,0,8,0.00
2013-9-25,76.3,69.2,64.9,15.8,10.4,7.1,10,10,10,29.87,29.79,2,0,8,0.00
2013-9-26,79.9,69.8,64.0,18.5,10.8,6.4,10,10,10,29.95,29.81,3,0,8,0.00
2013-9-27,81.9,68.8,57.6,20.0,10.0,1.4,10,10,10,30.09,29.95,6,1,13,0.00
2013-9-28,79.2,66.7,55.0,18.0,8.4,-0.5,10,10,10,30.17,30.07,4,1,12,0.00
2013-9-29,79.7,66.9,56.1,18.4,8.6,0.3,10,10,10,30.11,29.97,4,0,7,0.00
2013-9-30,79.3,65.8,54.7,18.1,7.7,-0.8,10,10,10,30.06,29.96,2,0,8,0.00
2013-10-1,84.7,68.8,55.8,22.2,10.0,0.1,10,10,10,30.13,30.00,3,0,9,0.00
2013-10-2,87.4,71.9,58.8,24.3,12.4,2.4,10,10,10,30.12,30.02,3,0,6,0.00
2013-10-3,89.4,73.9,60.6,25.8,14.0,3.8,10,10,10,30.11,30.01,3,0,7,0.00
2013-10-4,90.0,74.7,62.2,26.2,14.6,5.0,10,10,10,30.11,30.02,2,0,6,0.00
2013-10-5,91.2,75.6,62.6,27.1,15.2,5.3,10,10,10,30.09,29.97,3,0,9,0.00
2013-10-6,88.9,74.9,64.2,25.4,14.7,6.5,10,10,10,30.01,29.85,3,0,9,0.00
2013-10-7,81.3,76.2,69.3,19.6,15.7,10.4,10,10,10,29.90,29.77,2,0,8,0.00
2013-10-8,70.3,64.3,58.5,11.2,6.6,2.1,10,10,10,30.10,29.87,5,1,15,0.00
2013-10-9,78.4,65.9,58.6,17.4,7.8,2.3,10,10,10,30.14,30.03,4,1,9,0.00
2013-10-10,81.1,64.8,51.8,19.5,6.9,-3.0,10,10,10,30.08,29.94,4,0,11,0.00
2013-10-11,85.8,69.1,55.8,23.0,10.3,0.1,10,10,10,29.99,29.87,4,1,10,0.00
2013-10-12,86.2,70.9,57.4,23.3,11.6,1.3,10,10,10,30.03,29.91,4,0,9,0.00
2013-10-13,78.6,70.7,65.7,17.6,11.5,7.7,10,10,10,30.13,30.02,2,0,9,0.00
2013-10-14,72.1,67.8,64.2,12.6,9.3,6.5,10,10,10,30.15,30.08,3,1,8,0.00
2013-10-15,78.6,68.7,62.4,17.6,10.0,5.2,10,10,10,30.11,29.98,4,1,11,0.00
2013-10-16,81.5,68.4,57.4,19.7,9.8,1.3,10,10,10,30.02,29.91,3,0,8,0.02
2013-10-17,85.8,73.5,63.3,23.0,13.6,5.9,10,10,10,29.94,29.83,4,1,12,0.00
2013-10-18,81.7,73.3,69.4,19.9,13.5,10.5,10,10,10,29.95,29.85,2,0,6,0.00
2013-10-19,75.0,68.8,63.7,14.8,10.1,6.1,10,10,10,29.93,29.85,4,1,11,0.00
2013-10-20,76.1,64.0,53.6,15.6,6.4,-1.6,10,10,10,30.02,29.90,2,0,5,0.00
2013-10-21,73.0,62.3,52.9,13.3,5.0,-2.2,10,10,10,30.09,29.97,2,0,5,0.00
2013-10-22,70.3,64.7,60.8,11.2,6.9,3.9,10,10,10,30.00,29.81,2,0,4,0.00
2013-10-23,72.0,62.9,52.2,12.5,5.6,-2.7,10,10,10,30.03,29.76,12,3,27,0.00
2013-10-24,70.0,54.6,39.6,11.0,-0.9,-12.5,10,10,10,30.17,30.03,5,1,16,0.00
2013-10-25,63.0,52.4,41.4,5.6,-2.6,-11.1,10,10,10,30.31,30.12,5,1,11,0.00
2013-10-26,66.4,49.3,33.8,8.2,-4.9,-16.9,10,10,10,30.30,30.11,5,0,9,0.00
2013-10-27,75.9,59.5,45.0,15.5,2.9,-8.3,10,10,10,30.11,30.03,5,1,11,0.00
2013-10-28,74.3,63.8,56.8,14.3,6.2,0.9,10,10,10,30.23,30.09,2,0,5,0.00
2013-10-29,78.3,63.2,52.9,17.3,5.8,-2.2,10,10,10,30.30,30.20,3,0,9,0.00
2013-10-30,82.2,66.0,54.3,20.3,7.9,-1.1,10,10,10,30.28,30.13,4,0,8,0.00
2013-10-31,81.7,69.4,56.5,19.9,10.5,0.6,10,10,10,30.15,29.91,4,1,14,0.00
2013-11-1,74.5,68.2,64.6,14.4,9.6,6.8,10,10,10,29.91,29.71,4,1,12,0.00
2013-11-2,74.8,63.3,53.4,14.7,5.8,-1.8,10,10,10,29.97,29.73,8,2,15,0.00
2013-11-3,68.9,54.1,43.5,10.1,-1.3,-9.4,10,10,10,30.26,29.96,3,0,8,0.00
2013-11-4,67.5,52.6,41.7,9.0,-2.4,-10.8,10,10,10,30.42,30.27,5,1,14,0.00
2013-11-5,69.8,55.3,40.6,10.8,-0.3,-11.6,10,10,10,30.44,30.31,4,1,10,0.00
2013-11-6,77.2,62.5,51.1,16.5,5.2,-3.6,10,10,10,30.32,30.08,2,0,6,0.00
2013-11-7,77.5,63.5,53.4,16.7,6.0,-1.8,10,10,10,30.09,29.92,7,1,15,0.00
2013-11-8,64.2,50.7,40.8,6.5,-3.8,-11.5,10,10,10,30.29,30.10,3,1,13,0.00
2013-11-9,64.9,50.6,36.5,7.1,-4.0,-14.8,10,10,10,30.32,30.20,2,0,6,0.00
2013-11-10,72.9,57.1,48.2,13.2,1.1,-5.8,10,10,10,30.22,30.11,4,0,8,0.00
2013-11-11,69.1,54.0,43.3,10.3,-1.3,-9.5,10,10,10,30.27,30.14,4,0,9,0.00
2013-11-12,74.7,54.2,39.6,14.5,-1.2,-12.5,10,10,10,30.38,29.99,7,2,20,0.00
2013-11-13,52.9,39.5,29.7,-2.2,-12.5,-20.1,10,10,10,30.52,30.38,4,1,9,0.00
2013-11-14,63.5,42.7,26.6,6.0,-10.0,-22.5,10,10,10,30.47,30.29,2,0,8,0.00
2013-11-15,64.2,52.9,38.7,6.5,-2.1,-13.2,10,10,10,30.28,30.11,1,0,4,0.00
2013-11-16,74.5,64.1,57.2,14.4,6.4,1.2,10,10,10,30.21,30.09,2,0,7,0.00
2013-11-17,70.9,64.7,54.7,11.6,6.9,-0.8,10,10,10,30.14,29.92,2,0,8,0.00
2013-11-18,86.0,73.2,54.9,23.2,13.4,-0.6,10,10,10,29.94,29.81,8,2,17,0.00
2013-11-19,65.5,53.3,41.9,7.5,-1.8,-10.6,10,10,10,30.17,29.94,4,0,11,0.00
2013-11-20,59.2,51.4,43.2,2.7,-3.3,-9.7,10,10,10,30.31,30.14,5,1,13,0.00
2013-11-21,60.3,54.2,51.8,3.5,-1.1,-3.0,10,10,10,30.37,30.30,2,0,9,0.00
2013-11-22,70.2,58.5,52.2,11.1,2.2,-2.7,10,10,10,30.32,30.11,3,0,6,0.00
2013-11-23,67.1,62.1,52.7,8.8,4.9,-2.3,10,10,10,30.13,30.00,5,1,11,0.00
2013-11-24,52.9,42.7,33.8,-2.2,-10.0,-16.9,10,10,10,30.45,30.14,4,1,11,0.00
2013-11-25,54.0,41.8,28.9,-1.3,-10.7,-20.7,10,10,10,30.47,30.22,4,1,10,0.00
2013-11-26,68.4,49.7,43.3,9.7,-4.6,-9.5,10,10,10,30.21,29.57,4,1,9,0.00
2013-11-27,49.1,44.0,32.4,-5.1,-9.0,-18.0,10,10,10,30.20,29.53,10,4,17,0.00
2013-11-28,54.9,37.8,25.0,-0.6,-13.8,-23.8,10,10,10,30.44,30.20,2,0,5,0.00
2013-11-29,60.6,41.8,27.9,3.8,-10.7,-21.6,10,10,10,30.49,30.40,3,0,7,0.00
2013-11-30,53.8,44.6,34.9,-1.5,-8.6,-16.1,10,10,10,30.53,30.30,3,1,10,0.00
2013-12-1,60.3,50.1,41.9,3.5,-4.4,-10.6,10,10,10,30.30,29.98,2,0,4,0.00
2013-12-2,65.7,53.6,45.7,7.7,-1.6,-7.7,10,10,10,29.98,29.79,7,1,11,0.00
2013-12-3,62.2,55.7,50.2,5.0,0.0,-4.2,10,10,10,29.92,29.83,2,0,10,0.00
2013-12-4,71.6,63.1,58.3,12.2,5.7,2.0,10,10,10,30.04,29.90,4,0,7,0.00
2013-12-5,70.2,66.3,61.0,11.1,8.1,4.1,10,10,10,30.09,30.01,4,1,11,0.00
2013-12-6,80.8,71.1,61.3,19.2,11.8,4.3,10,10,10,30.08,29.98,8,2,14,0.00
2013-12-7,71.1,62.4,47.8,11.8,5.1,-6.1,10,10,10,30.31,30.01,6,1,13,0.32
2013-12-8,47.8,44.9,42.6,-6.1,-8.3,-10.1,10,10,10,30.32,30.20,4,1,8,0.14
2013-12-9,54.0,47.8,41.9,-1.3,-6.1,-10.6,10,10,10,30.20,30.00,2,0,6,0.18
2013-12-10,68.4,54.8,38.7,9.7,-0.7,-13.2,10,10,10,30.30,29.91,11,2,25,0.06
2013-12-11,59.2,42.9,30.9,2.7,-9.9,-19.2,10,10,10,30.40,30.27,4,0,8,0.00
2013-12-12,56.8,42.8,32.0,0.9,-10.0,-18.3,10,10,10,30.38,30.25,4,1,8,0.00
2013-12-13,60.3,43.5,28.9,3.5,-9.5,-20.7,10,10,10,30.34,30.17,3,0,8,0.00
2013-12-14,61.5,52.9,47.1,4.5,-2.2,-6.6,10,10,10,30.18,29.78,4,1,10,1.09
2013-12-15,55.4,51.2,43.0,-0.2,-3.5,-9.8,10,10,10,30.06,29.75,11,3,18,0.06
2013-12-16,63.5,46.5,32.0,5.9,-7.3,-18.6,10,10,10,30.19,30.11,5,2,9,0.00
2013-12-17,66.4,53.3,39.0,8.2,-1.8,-12.9,10,10,10,30.19,30.03,7,2,17,0.00
2013-12-18,58.1,47.4,35.6,1.9,-6.4,-15.5,10,10,10,30.27,30.06,6,1,11,0.00
2013-12-19,66.0,46.9,31.1,7.9,-6.8,-19.0,10,10,10,30.32,30.19,4,0,7,0.00
2013-12-20,71.4,54.4,41.2,12.1,-1.0,-11.2,10,10,10,30.22,30.11,5,0,12,0.00
2013-12-21,81.0,65.9,52.2,19.3,7.8,-2.7,10,10,10,30.11,29.96,6,1,15,0.00
2013-12-22,78.6,71.3,66.6,17.6,11.9,8.3,10,10,10,30.04,29.95,12,2,17,0.37
2013-12-23,70.7,61.7,49.1,11.5,4.6,-5.1,10,10,10,30.14,29.97,7,2,16,0.98
2013-12-24,55.2,44.8,34.9,-0.4,-8.4,-16.1,10,10,10,30.34,30.12,8,3,18,0.00
2013-12-25,47.1,39.0,29.7,-6.6,-12.9,-20.1,10,10,10,30.47,30.32,3,1,8,0.00
2013-12-26,53.8,43.6,37.4,-1.5,-9.4,-14.1,10,10,10,30.32,30.21,3,0,8,0.01
2013-12-27,56.5,42.3,33.4,0.6,-10.3,-17.2,10,10,10,30.41,30.27,3,0,6,0.00
2013-12-28,54.5,42.5,31.1,-0.9,-10.2,-19.0,10,10,10,30.36,30.02,2,0,5,0.54
2013-12-29,60.4,51.2,45.0,3.6,-3.5,-8.3,10,10,10,30.01,29.75,6,2,14,0.83
2013-12-30,58.5,49.8,41.0,2.1,-4.5,-11.3,10,10,10,30.14,29.94,6,2,10,0.00
2013-12-31,57.0,49.1,40.1,1.0,-5.1,-12.0,10,10,10,30.32,30.12,5,2,13,0.00
2014-1-1,51.6,45.1,38.3,-3.1,-8.1,-13.4,10,10,10,30.33,30.11,1,0,3,0.00
2014-1-2,54.0,48.0,35.4,-1.3,-5.9,-15.7,10,10,10,30.11,29.68,12,2,29,0.33